Regional Weather Roundup
Issued by NWS State College, PA

Home | Current Version | Previous Version | Text Only | Print | Product List | Glossary Off
Versions: 1 2 3 4 5 6 7 8 9 10 11 12 13 14 15 16 17 18 19 20 21 22 23 24 25 26 27 28 29 30 31 32 33 34 35 36 37 38 39 40 41 42 43 44 45 46 47 48 49 50

000
ASUS41 KCTP 241103
RWRCTP

REGIONAL WEATHER ROUNDUP
NATIONAL WEATHER SERVICE STATE COLLEGE PA
700 AM EDT THU MAY 24 2018

Note: "fair" indicates few or no clouds below 12,000 feet with no
significant weather and/or obstructions to visibility.

* = STATION THAT DOES NOT REPORT PRECIPITATION /E.G. RAIN...SNOW...ETC/
    THUNDER OR FOG.

PAZ002>004-007>009-013>016-020>023-029>032-241200-
WESTERN PENNSYLVANIA

CITY           SKY/WX    TMP DP  RH WIND       PRES   REMARKS
ERIE           FAIR      54  49  83 CALM      30.23R
MEADVILLE      FAIR      51  51 100 CALM      30.24R
FRANKLIN*      FAIR      49  48  97 N3        30.25R
NEW CASTLE     FAIR      48  48 100 CALM      30.24R FOG
BEAVER COUNTY  NOT AVBL
BUTLER*        FAIR      49  48  97 CALM      30.24R FOG
PITTSBURGH INT FAIR      53  50  89 CALM      30.22R
PITTSBURGH     FAIR      55  53  93 CALM      30.22R
INDIANA*       SUNNY     50  50 100 CALM      30.27S
LATROBE        SUNNY     50  50 100 CALM      30.24R
WASHINGTON CO* FAIR      48  48 100 CALM      30.26  FOG
$$

PAZ004>006-010>012-017>019-024>028-033>037-041-042-045-046-049>053-241200-
CENTRAL PENNSYLVANIA

CITY           SKY/WX    TMP DP  RH WIND       PRES   REMARKS
BRADFORD       FAIR      45  43  93 CALM      30.24R
DUBOIS         FAIR      52  48  86 E3        30.23R
CLEARFIELD     FAIR      49  48  97 S3        30.24R
JOHNSTOWN      FAIR      56  50  80 CALM      30.25R
ALTOONA        FAIR      57  51  80 CALM      30.24R
STATE COLLEGE  SUNNY     54  48  82 CALM      30.22R
WILLIAMSPORT   FAIR      55  51  86 W9        30.20R
SELINSGROVE    FAIR      51  50  96 NW3       30.20R
FT INDIANTOWN  FAIR      66  47  48 N7        30.17R
CAPITAL CITY   FAIR      61  54  77 CALM      30.18R
HARRISBURG     FAIR      62  53  72 NW6       30.17R
YORK           FAIR      61  55  81 W3        30.18R
$$

PAZ038>040-043-044-047-048-054-055-060>062-067>071-241200-
EASTERN PENNSYLVANIA

CITY           SKY/WX    TMP DP  RH WIND       PRES   REMARKS
SCRANTON       FAIR      54  52  93 CALM      30.19R
MOUNT POCONO   FAIR      56  46  69 NW12      30.17R
ALLENTOWN      FAIR      59  52  77 NW5       30.16R
QUAKERTOWN*    SUNNY     59  54  82 CALM      30.16R
READING        FAIR      58  57  97 N5        30.16R
LANCASTER      FAIR      61  54  77 NW6       30.16R
COATESVILLE    FAIR      63  52  67 NW10      30.17R
POTTSTOWN      FAIR      59  55  87 CALM      30.16R
BLUE BELL      FAIR      61  54  77 NW3       30.16R
DOYLESTOWN     FAIR      63  51  65 NW6       30.13R
WILLOW GROVE   NOT AVBL
NORTH PHILA    FAIR      66  53  63 NW6       30.14R
PHILADELPHIA   FAIR      65  53  65 NW7       30.14R
$$




USA.gov is the U.S. government's official web portal to all federal, state and local government web resources and services.